Kenansville, NC

4:26 PM EDT on October 19, 2019 (GMT -0400)
Duplin County

Weather History for KDPL - August, 2019

Change the Weather History Date:

Tuesday, August 6, 2019

  Actual Average (KOAJ) Record (KOAJ)
Temperature  
Mean Temperature 78 °F -  
Max Temperature 89 °F 86 °F 96 °F (1999)
Min Temperature 68 °F 66 °F 62 °F (2013)
Cooling Degree Days 14    
Growing Degree Days 28 (Base 50)    
Moisture  
Dew Point 71 °F    
Average Humidity 72    
Maximum Humidity 100    
Minimum Humidity 49    
Precipitation  
Precipitation 0.00 in - - ()
Sea Level Pressure  
Sea Level Pressure 29.92 in    
Wind  
Wind Speed 1 mph (West)    
Max Wind Speed 6 mph    
Max Gust Speed -    
Visibility 7 miles    
Events Fog    
Averages and records for this station are not official NWS values.
T = Trace of Precipitation, MM = Missing Value Source: NWS Daily Summary

Daily Weather History Graph

Daily Weather History Graph

Search for Another Location

Airport or City:

Astronomy

Aug. 06, 2019 Rise Set
Actual Time 6:24 AM EDT 8:10 PM EDT
Civil Twilight 5:57 AM EDT 8:37 PM EDT
Nautical Twilight 5:24 AM EDT 9:10 PM EDT
Astronomical Twilight 4:49 AM EDT 9:45 PM EDT
Moon 12:33 PM EDT (8/6) No Moon Set
Length of Visible Light 14h 40m
Length of Day
13h 45m
Waxing Crescent, 38% of the Moon is Illuminated
Aug 6
Waxing Crescent
Aug 7
First Quarter
Aug 15
Full
Aug 23
Last Quarter
Aug 30
New

Hourly Weather History & Observations

Time (EDT) Temp. Heat Index Dew Point Humidity Pressure Visibility Wind Dir Wind Speed Gust Speed Precip Events Conditions
12:15 AM 71.6 °F - - N/A% 29.94 in 3.5 mi Calm Calm - N/A   Overcast
12:35 AM 71.6 °F - - N/A% 29.94 in 3.5 mi Calm Calm - N/A   Overcast
12:55 AM 71.6 °F - - N/A% 29.94 in 3.0 mi Calm Calm - N/A   Overcast
1:15 AM 71.6 °F - - N/A% 29.93 in 4.0 mi Calm Calm - N/A   Haze
1:35 AM 71.6 °F - - N/A% 29.92 in 7.0 mi Calm Calm - N/A   Haze
1:55 AM 69.8 °F - - N/A% 29.92 in 7.0 mi Calm Calm - N/A   Scattered Clouds
2:15 AM 69.8 °F - - N/A% 29.91 in 7.0 mi Calm Calm - N/A   Scattered Clouds
2:35 AM 69.8 °F - - N/A% 29.91 in 4.0 mi Calm Calm - N/A   Haze
2:55 AM 69.8 °F - - N/A% 29.90 in 4.0 mi Calm Calm - N/A   Haze
3:15 AM 69.8 °F - - N/A% 29.91 in 5.0 mi Calm Calm - N/A   Haze
3:35 AM 69.8 °F - - N/A% 29.92 in 5.0 mi Calm Calm - N/A   Haze
3:55 AM 69.8 °F - - N/A% 29.92 in 0.8 mi NNW 3.5 mph - N/A   Overcast
4:15 AM 69.8 °F - - N/A% 29.92 in 1.0 mi Calm Calm - N/A   Overcast
4:35 AM 69.8 °F - - N/A% 29.92 in 0.5 mi Calm Calm - N/A Fog Fog
4:55 AM 69.8 °F - - N/A% 29.92 in 0.2 mi Calm Calm - N/A Fog Fog
5:15 AM 68.0 °F - - N/A% 29.92 in 0.2 mi Calm Calm - N/A Fog Fog
5:35 AM 68.0 °F - - N/A% 29.92 in 0.2 mi Calm Calm - N/A Fog Fog
5:55 AM 68.0 °F - - N/A% 29.92 in 0.2 mi Calm Calm - N/A Fog Fog
6:15 AM 68.0 °F - - N/A% 29.93 in 0.2 mi NNW 4.6 mph - N/A Fog Fog
6:35 AM 68.0 °F - - N/A% 29.93 in 0.2 mi Calm Calm - N/A Fog Fog
6:55 AM 69.8 °F - - N/A% 29.94 in 0.2 mi Calm Calm - N/A Fog Fog
7:15 AM 69.8 °F - - N/A% 29.94 in 0.2 mi Calm Calm - N/A Fog Fog
7:35 AM 69.8 °F - - N/A% 29.94 in 0.5 mi Calm Calm - N/A Fog Fog
7:55 AM 69.8 °F - - N/A% 29.94 in 4.0 mi Calm Calm - N/A   Haze
8:15 AM 69.8 °F - - N/A% 29.95 in 7.0 mi Calm Calm - N/A   Haze
8:35 AM 69.8 °F - - N/A% 29.95 in 7.0 mi Calm Calm - N/A   Haze
8:55 AM 71.6 °F - 71.6 °F 100% 29.95 in 7.0 mi Calm Calm - N/A   Overcast
9:15 AM 73.4 °F - 71.6 °F 94% 29.95 in 7.0 mi Calm Calm - N/A   Overcast
9:35 AM 73.4 °F - 71.6 °F 94% 29.95 in 7.0 mi NNW 3.5 mph - N/A   Scattered Clouds
9:55 AM 77.0 °F - 71.6 °F 83% 29.95 in 10.0 mi Calm Calm - N/A   Mostly Cloudy
10:15 AM 77.0 °F - 71.6 °F 83% 29.95 in 7.0 mi NW 4.6 mph - N/A   Mostly Cloudy
10:35 AM 78.8 °F - 71.6 °F 78% 29.95 in 7.0 mi Calm Calm - N/A   Scattered Clouds
10:55 AM 80.6 °F 84.6 °F 71.6 °F 74% 29.95 in 10.0 mi WNW 3.5 mph - N/A   Scattered Clouds
11:15 AM 80.6 °F 83.9 °F 69.8 °F 70% 29.95 in 10.0 mi NNE 3.5 mph - N/A   Clear
11:35 AM 80.6 °F 84.6 °F 71.6 °F 74% 29.94 in 10.0 mi NNE 3.5 mph - N/A   Scattered Clouds
11:55 AM 82.4 °F 87.2 °F 71.6 °F 70% 29.94 in 10.0 mi WSW 5.8 mph - N/A   Clear
12:15 PM 82.4 °F 87.2 °F 71.6 °F 70% 29.94 in 10.0 mi West 3.5 mph - N/A   Clear
12:35 PM 84.2 °F 89.6 °F 71.6 °F 66% 29.94 in 10.0 mi Calm Calm - N/A   Scattered Clouds
12:55 PM 84.2 °F 89.6 °F 71.6 °F 66% 29.94 in 10.0 mi NNW 5.8 mph - N/A   Mostly Cloudy
1:15 PM 84.2 °F 88.4 °F 69.8 °F 62% 29.93 in 10.0 mi NNW 3.5 mph - N/A   Scattered Clouds
1:35 PM 86.0 °F 91.8 °F 71.6 °F 62% 29.92 in 10.0 mi Calm Calm - N/A   Scattered Clouds
1:55 PM 86.0 °F 91.8 °F 71.6 °F 62% 29.92 in 10.0 mi WSW 3.5 mph - N/A   Clear
2:15 PM 86.0 °F 90.4 °F 69.8 °F 58% 29.91 in 10.0 mi Calm Calm - N/A   Clear
2:35 PM 86.0 °F 90.4 °F 69.8 °F 58% 29.91 in 10.0 mi SSW 3.5 mph - N/A   Scattered Clouds
2:55 PM 87.8 °F 91.4 °F 68.0 °F 52% 29.90 in 10.0 mi Calm Calm - N/A   Mostly Cloudy
3:15 PM 87.8 °F 91.4 °F 68.0 °F 52% 29.90 in 10.0 mi Calm Calm - N/A   Scattered Clouds
3:35 PM 89.6 °F 94.7 °F 69.8 °F 52% 29.89 in 10.0 mi SSW 3.5 mph - N/A   Clear
3:55 PM 87.8 °F 90.4 °F 66.2 °F 49% 29.89 in 10.0 mi Calm Calm - N/A   Clear
4:15 PM 89.6 °F 93.4 °F 68.0 °F 49% 29.88 in 10.0 mi WSW 4.6 mph - N/A   Clear
4:35 PM 87.8 °F 91.4 °F 68.0 °F 52% 29.88 in 10.0 mi SE 3.5 mph - N/A   Scattered Clouds
4:55 PM 89.6 °F 93.4 °F 68.0 °F 49% 29.88 in 10.0 mi WSW 3.5 mph - N/A   Scattered Clouds
5:15 PM 89.6 °F 93.4 °F 68.0 °F 49% 29.88 in 10.0 mi Calm Calm - N/A   Scattered Clouds
5:35 PM 87.8 °F 91.4 °F 68.0 °F 52% 29.87 in 10.0 mi Calm Calm - N/A   Clear
5:55 PM 87.8 °F 91.4 °F 68.0 °F 52% 29.87 in 10.0 mi Calm Calm - N/A   Clear
6:15 PM 87.8 °F 91.4 °F 68.0 °F 52% 29.86 in 10.0 mi Calm Calm - N/A   Clear
6:55 PM 86.0 °F 91.8 °F 71.6 °F 62% 29.87 in 10.0 mi Calm Calm - N/A   Clear
7:15 PM 82.4 °F 88.2 °F 73.4 °F 74% 29.87 in 10.0 mi Calm Calm - N/A   Clear
7:35 PM 80.6 °F 86.2 °F 75.2 °F 84% 29.88 in 10.0 mi Calm Calm - N/A   Clear
7:55 PM 78.8 °F - 75.2 °F 89% 29.88 in 10.0 mi SSE 4.6 mph - N/A   Clear
8:15 PM 80.6 °F 86.2 °F 75.2 °F 84% 29.89 in 10.0 mi SSE 3.5 mph - N/A   Clear
8:35 PM 80.6 °F 86.2 °F 75.2 °F 84% 29.89 in 10.0 mi Calm Calm - N/A   Clear
8:55 PM 78.8 °F - 75.2 °F 89% 29.90 in 10.0 mi SSE 3.5 mph - N/A   Clear
9:15 PM 78.8 °F - 73.4 °F 83% 29.91 in 10.0 mi SSE 3.5 mph - N/A   Clear
9:35 PM 78.8 °F - 75.2 °F 89% 29.91 in 10.0 mi Calm Calm - N/A   Clear
9:55 PM 77.0 °F - 73.4 °F 89% 29.91 in 10.0 mi Calm Calm - N/A   Clear
10:15 PM 77.0 °F - 73.4 °F 89% 29.91 in 10.0 mi Calm Calm - N/A   Clear
10:35 PM 77.0 °F - 73.4 °F 89% 29.91 in 10.0 mi Calm Calm - N/A   Clear
10:55 PM 77.0 °F - 73.4 °F 89% 29.91 in 10.0 mi Calm Calm - N/A   Clear
11:15 PM 75.2 °F - 73.4 °F 94% 29.91 in 7.0 mi Calm Calm - N/A   Clear
11:35 PM 75.2 °F - 73.4 °F 94% 29.92 in 7.0 mi Calm Calm - N/A   Clear
11:55 PM 75.2 °F - 73.4 °F 94% 29.92 in 7.0 mi Calm Calm - N/A   Clear